www.pogodaiklimat.ru

Погода и климат >> Архив погоды >> Россия >> Сахалинская область >> Поронайск


ПОГОДА в Поронайске

  • Прогноз погоды в Поронайске
  • Монитор погоды в Поронайске
  • Климат города

АРХИВ ПОГОДЫ в Поронайске

Время (UTC), дата Ветер
(напр.,м/с)
 
Видим.   Явления Облачность Т
(С)
Тd
(С)
f
(%)
Тe
(С)
Тes
(С)
Комфортность P
(гПа)
Po
(гПа)
Тmin
(С)
Tmax
(С)
R
(мм)
R24
(мм)
S
(см)
21 15.04 СЗ 1-2
{3}
20 км 6/0
[Ac trans]
-3.7 -6.2 83 -6 -5 1007.2 1006.0 -3.8 65
00 16.04 Ю 2-3
{3}
20 км ясно -0.5 -4.8 73 -4 +6 1007.6 1006.5
03 16.04 Ю 5-7
{7}
20 км 1/1 600 м
[Cu hum]
+0.8 -2.5 79 -5 +2 1006.6 1005.4
06 16.04 Ю 2-4
{9}
20 км 1/0
[Ci ing]
+2.2 -0.9 80 -1 +5 1005.8 1004.7
09 16.04 Ю 1-2
{4}
20 км ясно +3.5 -1.3 71 +2 +2 1006.8 1005.7 +3.5
12 16.04 З 3-3
{5}
20 км ясно +2.1 -6.1 55 -2 -2 1009.3 1008.2
15 16.04 Ю 1-2
{5}
20 км ясно +1.5 -2.9 73 0 0 1008.1 1006.9
18 16.04 З 3-4
{6}
20 км 4/0
[Ac trans]
+2.0 -4.0 64 -2 -2 1007.2 1006.0
21 16.04 З 3-5
{8}
20 км 6/1 600 м
[Cb cap Ac lent Ci]
+6.8 -3.7 47 +4 +5 1008.5 1007.4 0.0 59
00 17.04 ЮЗ 2-3
{7}
20 км ясно +11.1 -4.0 34 +10 +20 опасность
простуды
1008.9 1007.9
03 17.04 З 5-7
{7}
20 км 3/0
[Ci fib]
+13.4 -5.3 27 +12 +19 1008.7 1007.6
06 17.04 З 5-7
{8}
20 км 10/1 600 м
[Cb cap Ci ing]
+13.8 -4.7 27 +12 +15 1008.3 1007.2
09 17.04 З 4-8
{9}
20 км 1/1 600 м
[Cb cap]
+10.6 -5.9 31 +9 +9 1008.4 1007.3 +15.3
12 17.04 В 2-2
{9}
20 км 8/3 600 м
[Cb cap Ci ing]
+7.8 -3.1 46 +6 +6 1008.9 1007.8
15 17.04 Ю 1-2
{5}
20 км ясно +4.2 -0.3 72 +3 +3 1008.3 1007.2
18 17.04 З 6-8
{14}
20 км ясно +5.9 -0.6 63 +1 +1 1007.9 1006.8
21 17.04 ЮВ 1-2
{8}
10 км дым 8/0
[Ci]
+0.9 -1.4 85 -1 +1 1008.7 1007.6 +0.1 45
00 18.04 ЮВ 2-3
{4}
20 км дым 10/0
[Ci ing]
+4.5 +0.1 73 +2 +10 опасность
простуды
1008.5 1007.4
03 18.04 Ю 2-3
{6}
20 км дым 10/0
[Ci ing]
+7.5 +1.4 65 +6 +17 опасность
простуды
1006.5 1005.4
06 18.04 В 3-4
{4}
20 км дым 10/3 600 м
[Cb cap Ac trans Ci ing]
+6.1 +1.8 74 +3 +5 1005.8 1004.7
09 18.04 СВ 1-3
{8}
20 км дым 10/3 600 м
[Cb cap Ac trans Ci ing]
+4.5 +0.7 76 +3 +3 1008.0 1006.9 +8.1
12 18.04 ЮЗ 2-4
{4}
10 км слабый ливневой дождь 10/8 600 м
[Cb cap Ci ing]
+3.6 +1.2 84 +1 +1 1010.5 1009.4
15 18.04 Ю 1-3
{4}
10 км слабый ливневой дождь 10/6 600 м
[Cb cap Ci ing]
+3.1 +0.3 82 +2 +2 1010.9 1009.8
18 18.04 Ю 1-2
{3}
20 км {ливн. осадки} 10/8 660 м
[Cb cap Ci ing]
+2.7 +0.4 85 +1 +1 1011.7 1010.6
21 18.04 ЮЗ 1-2
{2}
4000 м дымка 10/3 600 м
[Cb cap Ac As Ci ing]
+2.4 +1.3 92 +1 +1 1012.4 1011.3 +1.4 0.5 38
00 19.04 Ю 3-5
{5}
10 км дым 10/4 600 м
[Cb cap Ac As Ci ing]
+3.4 -0.2 77 -0 +2 1013.2 1012.1
03 19.04 Ю 2-3
{5}
10 км дым 10/8 700 м
[Sc Ci ing]
+3.6 +0.2 78 +1 +3 1013.5 1012.4
06 19.04 Ю 2-4
{5}
20 км 10/3 600 м
[Cb cap Ac As Ci fib]
+3.4 -0.1 78 +1 +3 1013.1 1012.0
09 19.04 Ю 5-7
{7}
20 км 10/8 960 м
[Cb cap Ac As Ci ing]
+2.4 -0.0 84 -3 -3 1013.0 1011.9 +3.8
12 19.04 Ю 6-7
{9}
20 км 10/6 930 м
[Cb cap Ac trans Ci ing]
+1.7 -0.6 85 -4 -4 1013.8 1012.6
15 19.04 Ю 6-8
{10}
10 км слабый ливневой дождь 10/8 600 м
[Cb cap Ac trans Ci ing]
+1.5 -0.5 87 -5 -5 1013.2 1012.0
18 19.04 Ю 4-6
{8}
10 км слабый ливневой дождь 10/8 600 м
[Cb cap Ac trans Ci ing]
+0.7 -0.2 94 -5 -5 1012.4 1011.2
21 19.04 СЗ 2-2
{6}
10 км осадки на расстоянии {ливн. осадки} 10/10 120 м
[St]
+0.4 -0.2 96 -3 -3 1011.0 1009.9 +0.4 1 31
00 20.04 С 3-4
{4}
500 м туман {ливн. осадки} ?/? +0.6 +0.4 99 -4 -4 1010.2 1009.1 +0.1
03 20.04 В 3-4
{4}
10 км {туман} 8/3 200 м
[St Ci fib]
+2.6 +1.3 91 -2 +6 1008.2 1007.1
06 20.04 ЮВ 2-2
{5}
20 км {туман} 10/3 600 м
[Cb cap Ci ing]
+2.2 +1.2 93 -1 +3 1008.0 1006.9
09 20.04 СЗ 1-2
{3}
20 км 10/1 600 м
[Cb cap Ac trans Ci ing]
+3.0 +1.9 92 +1 +1 1008.2 1007.1 +3.0
12 20.04 В 2-3
{3}
20 км 9/3 600 м
[Cb cap Ac As]
+2.8 +1.5 91 -0 -0 1009.3 1008.2
15 20.04 З 1-1
{5}
4000 м дымка 10/4 600 м
[Cb cap Ac As Ci fib]
+1.8 +0.9 94 -0 -0 1009.5 1008.4
18 20.04 Ю 3-4
{4}
20 км 10/3 600 м
[Cb cap Ac As Ci ing]
+3.4 +1.5 87 -1 -1 1007.0 1005.9
21 20.04 Ю 1-2
{7}
4000 м слабый ливневой дождь 10/8 570 м
[Cb cap Ac As Ci ing]
+1.7 +1.0 95 -0 0 1004.1 1003.0 +1.6 0.3
00 21.04 ЮВ 2-3
{5}
4000 м слабый ливневой дождь 10/6 480 м
[Cb cap Ac As Ci ing]
+1.8 +0.8 93 -2 +1 1002.0 1000.9
03 21.04 С 1-2
{4}
10 км слабый ливневой дождь 10/10 210 м
[Cb cap]
+1.9 +1.1 94 0 0 1002.0 1000.9
06 21.04 С 3-5
{5}
20 км {ливн. осадки} 10/6 300 м
[Cb cap Ac lent Ci ing]
+4.3 +3.3 93 +1 +2 1003.5 1002.4
09 21.04 СВ 4-7
{7}
20 км слабый ливневой дождь 10/6 600 м
[Cb cap Ac As Ci ing]
+2.4 +0.9 90 -3 -3 1007.8 1006.7 +4.4 3
12 21.04 С 3-6
{8}
20 км {ливн. осадки} 10/4 600 м
[Cb cap Ac As Ci ing]
+2.1 +0.2 87 -2 -2 1013.1 1012.0
15 21.04 С 4-7
{9}
20 км 5/1 600 м
[Cb cap Ac lent Ci fib]
+0.8 -1.6 84 -4 -4 1016.2 1015.0
18 21.04 С 3-4
{10}
20 км 3/1 600 м
[Cb cap Ac lent]
-1.9 -4.4 83 -7 -7 1018.2 1017.1
21 21.04 С 3-5
{5}
20 км 3/0
[Ac lent Cc]
-1.7 -4.6 81 -7 -6 1020.1 1018.9 -3.0 0.0 17
00 22.04 Ю 3-4
{5}
20 км 10/1 600 м
[Cb cap Ac lent Cc]
+0.7 -2.7 78 -4 0 1020.5 1019.4
03 22.04 Ю 5-6
{8}
20 км 10/8 660 м
[Cb cap Ci ing]
+2.2 +0.1 86 -3 -2 1019.7 1018.6
06 22.04 С 6-9
{12}
20 км 10/3 1000 м
[Cu med, cong Ci ing]
+7.4 -6.5 37 +4 +5 1019.5 1018.4
09 22.04 С 3-6
{10}
20 км 10/1 600 м
[Cb cap Ac lent Cc]
+6.1 -6.5 40 +4 +4 1020.7 1019.6 +7.8
12 22.04 З 3-4
{7}
20 км 9/3 600 м
[Cb cap Ac lent Ci ing]
+1.7 +0.3 90 -3 -3 1023.2 1022.2
15 22.04 СЗ 2-2
{7}
20 км 10/3 600 м
[Cb cap Ac As Ci ing]
+3.3 -2.4 66 +1 +1 1023.5 1022.5
18 22.04 З 3-4
{4}
20 км ясно +0.1 -3.6 76 -4 -4 1022.7 1021.7

 

Местоположение метеостанции Поронайск (Сахалинская область, Россия): широта 49.22 долгота 143.10 высота над уровнем моря 8 м.

В архиве по умолчанию представлена погода в Поронайске за последнюю неделю. Архивные данные за месяц целиком и за предыдущие месяцы, начиная с января 2011 года, Вы можете получить, выбрав интересующий диапазон дат из раскрывающегося списка и нажав кнопку "Ввод!".


*Определитесь, кто Вы:
робот инопланетянин человек

Внимание! Время в таблицах - всемирное. Для получения местного времени необходимо прибавить поправку, которая в Поронайске равна 11 ч.

Смотрите также архив погоды в соседних городах и на ближайших метеорологических станциях:

Погода в Макарове (Сахалинская область, Россия) (73 км)
Погода в Углегорске (Сахалинская область, Россия) (82 км)
Погода в Первомайском (Сахалинская область, Россия) (84 км)
Погода в Пильво (Сахалинская область, Россия) (117 км)
Погода в Оноре (Сахалинская область, Россия) (120 км)
Погода на Мысе Терпения (Сахалинская область, Россия) (133 км)
Погода в Пограничном (Сахалинская область, Россия) (138 км)
Погода в Ильинском (Сахалинская область, Россия) (153 км)
Погода в Тымовском (Сахалинская область, Россия) (170 км)
Погода в Александровск-Сахалинском (Сахалинская область, Россия) (200 км)

Пояснения к столбцам:

Ветер - указаны скорость ветра в м/с - средняя за 10 мин, порывы в срок и между сроками (в фигурных скобках) и направление, откуда дует ветер: С - северный, СВ - северо-восточный, В - восточный, ЮВ - юго-восточный, Ю - южный, ЮЗ - юго-западный, З - западный, СЗ - северо-западный.
Видимость - горизонтальная дальность видимости в метрах или километрах. При видимости от 1 до 10 км при отсутствии осадков обычно наблюдается дымка, при ухудшении видимости до 1 км и менее - туман. В сухую погоду видимость может ухудшаться дымом, пылью или мглою.
Явления - указаны атмосферные явления, наблюдавшиеся в срок или в последний час перед сроком; фигурными скобками обозначены явления, наблюдавшиеся между сроками (за 1-3 часа до срока); квадратными скобками обозначены град или гололедные отложения с указанием их диаметра в мм.
Облачность - указаны через наклонную черту общая и нижняя облачность в баллах и высота нижней границы облаков в метрах; квадратными скобками обозначены формы облаков: Ci - перистые, Cs - перисто-слоистые, Cc - перисто-кучевые, Ac - высококучевые, As - высокослоистые, Sc - слоисто-кучевые, Ns - слоисто-дождевые, Cu - кучевые, Cb - кучево-дождевые. Подробнее классификацию облаков см. в Атласе облаков (PDF).
T - Температура воздуха - температура, измеренная на высоте 2 м над землей.
Td - Температура точки росы - температура, при понижении до которой содержащийся в воздухе водяной пар достигнет насыщения.
f - Относительная влажность воздуха - влажноcть воздуха, измеренная на высоте 2 м над землей.
Te - Эффективная температура - температура, которую ощущает одетый по сезону человек в тени. Характеристика душности погоды. При расчете учитывается влияние влажности воздуха и скорости ветра на теплоощущения человека.
Tes - Эффективная температура на солнце - температура, которую ощущает человек, с поправкой на солнечный нагрев. Характеристика знойности погоды. Зависит от высоты солнца над горизонтом, облачности и скорости ветра. Ночью, в пасмурную погоду, а также при ветре 12 м/с и более поправка равна нулю.
P - Атмосферное давление - приведенное к уровню моря атмосферное давление.
Po - Атмосферное давление - измеренное на уровне метеостанции атмосферное давление.
Tmin - Минимальная температура - минимум температуры воздуха на высоте 2 м над землей.
Tmax - Максимальная температура - максимум температуры воздуха на высоте 2 м над землей.
R - Количество осадков - Количество выпавших осадков за период времени, мм. При наведении курсора мыши на число - период времени, за который выпало указанное количество осадков.
R24 - Количество осадков - Количество выпавших осадков за 24 часа, мм.
S - Снежный покров - Высота снежного покрова, см. При наведении курсора мыши на число - состояние снежного покрова и степень покрытия местности в баллах.